CDT,Max TemperatureF,Mean TemperatureF,Min TemperatureF,Max Dew PointF,MeanDew PointF,Min DewpointF,Max Humidity, Mean Humidity, Min Humidity, Max Sea Level PressureIn, Mean Sea Level PressureIn, Min Sea Level PressureIn, Max VisibilityMiles, Mean VisibilityMiles, Min VisibilityMiles, Max Wind SpeedMPH, Mean Wind SpeedMPH, Max Gust SpeedMPH,PrecipitationIn, CloudCover, Events, WindDirDegrees
2011-3-1,50,32,13,34,22,3,92,73,56,30.51,30.23,30.05,10,10,10,29,12,32,T,2,,8
2011-3-2,30,18,5,19,6,-4,75,61,45,30.63,30.46,30.24,10,10,10,20,11,22,0.00,0,,72
2011-3-3,52,39,26,37,28,19,92,75,59,30.21,30.01,29.88,10,10,5,17,9,24,0.00,1,,90
2011-3-4,30,24,17,28,19,10,92,78,59,30.42,30.20,29.99,10,7,4,26,19,39,T,7,Snow,334
2011-3-5,33,22,10,16,11,6,84,67,43,30.52,30.43,30.34,10,10,10,23,10,28,0.00,1,,1
2011-3-6,40,29,18,25,21,14,86,76,55,30.35,30.19,30.07,10,9,2,21,11,28,T,6,Snow,137
2011-3-7,28,26,24,27,23,19,93,86,78,30.17,30.11,30.05,9,3,0,13,9,,0.20,8,Fog-Snow,21
2011-3-8,37,32,26,32,30,24,96,89,81,30.13,30.07,30.02,6,3,2,17,10,22,T,8,Rain-Snow,61
2011-3-9,34,27,19,31,22,14,92,83,74,30.33,30.13,30.00,10,7,2,28,17,35,T,6,Snow,325
2011-3-10,48,31,13,35,20,10,88,73,58,30.39,30.28,30.10,10,9,3,15,6,18,0.00,1,,304
2011-3-11,60,46,31,40,31,27,85,68,51,30.06,29.88,29.76,10,10,10,30,14,39,0.00,0,,218
2011-3-12,36,31,25,27,23,19,81,75,69,30.36,30.15,29.93,10,10,9,35,20,45,T,7,Snow,326
2011-3-13,36,29,21,23,19,15,86,74,54,30.48,30.42,30.33,10,10,8,13,6,15,0.00,3,,11
2011-3-14,49,35,21,34,26,20,100,84,58,30.43,30.30,30.18,10,7,1,16,8,18,0.00,4,,143
2011-3-15,58,44,29,40,32,24,85,66,47,30.17,30.10,30.05,10,10,10,16,7,20,0.00,1,,237
2011-3-16,68,49,29,45,38,28,100,71,42,30.11,29.88,29.69,10,9,4,28,13,36,0.00,0,,148
2011-3-17,59,48,36,45,40,33,100,78,55,30.21,29.82,29.58,10,9,3,26,10,31,0.00,2,,329
2011-3-18,57,45,32,33,31,29,89,62,35,30.39,30.32,30.21,10,10,10,14,7,15,0.00,1,,6
2011-3-19,59,44,28,40,32,26,92,62,31,30.38,30.21,30.02,10,10,7,29,14,38,T,3,Rain,139
2011-3-20,63,51,39,52,45,34,100,82,64,30.06,29.90,29.82,10,8,2,20,10,25,0.01,5,Rain,310
2011-3-21,60,45,30,43,35,28,96,68,38,30.12,29.98,29.80,10,10,6,22,10,29,0.00,4,,97
2011-3-22,60,51,41,52,47,39,97,85,71,29.74,29.44,29.26,10,8,2,30,16,36,0.19,8,Rain-Thunderstorm,73
2011-3-23,41,35,28,37,28,21,86,76,67,30.20,29.83,29.48,10,10,10,31,20,37,0.00,8,,329
2011-3-24,38,31,23,27,20,16,93,71,46,30.32,30.20,30.04,10,9,1,18,8,24,0.08,4,Snow,46
2011-3-25,37,33,28,30,27,26,96,88,76,30.11,30.07,30.03,10,6,1,12,8,15,0.12,8,Snow,89
2011-3-26,34,32,30,29,26,21,88,76,64,30.16,30.10,30.05,10,7,1,18,10,23,0.01,8,Snow,95
2011-3-27,40,32,24,22,19,16,81,61,40,30.29,30.20,30.15,10,10,10,16,9,20,0.00,6,,98
2011-3-28,43,33,23,31,25,19,92,66,39,30.23,30.18,30.11,10,7,1,18,10,24,0.12,4,Snow,118
2011-3-29,37,33,28,30,28,25,92,84,75,30.34,30.27,30.21,10,6,1,13,6,15,0.03,8,Snow,96
2011-3-30,43,35,27,32,29,25,92,77,62,30.26,30.09,29.91,10,7,3,13,5,15,0.00,8,,145
2011-3-31,45,40,34,43,36,30,100,85,70,29.88,29.73,29.65,10,7,2,18,8,23,0.14,7,Rain,193